Location: Gottefrey
(46.1505°N, 7.1717°E)
Time: 10:22:59
(UTC+00:00)

Daily predictions for brighter satellites

Satellite Brightness Start Highest point End
(mag) Time Altitude Azimuth Time Altitude Azimuth Time Altitude Azimuth
BREEZE-M DEB (TANK) 3.3 19:26:49 10° SSW 19:29:53 46° SE 19:38:44 10° ENE
Cosmos 1076 Rocket 3.5 19:31:22 10° S 19:35:41 68° E 19:40:02 10° NNE
Resurs 01 Rocket 2.1 19:32:32 10° SE 19:36:46 45° ENE 19:41:02 10° N
Cosmos 1689 Rocket 3.1 19:34:44 10° N 19:37:25 46° WNW 19:40:04 10° SSW
SL-16 R/B 2.7 19:35:18 10° NNW 19:40:47 46° ENE 19:46:13 10° SE
ATLAS 5 CENTAUR R/B 4.3 19:40:43 10° NNW 19:43:51 16° NNE 19:47:15 10° ENE
Terra 3.9 19:42:00 10° E 19:43:54 12° ENE 19:45:48 10° NNE
RESURS DK-1 3.9 19:40:42 10° SW 19:44:39 42° NW 19:48:38 10° NNE
Meteor 2-3 Rocket 4.1 19:41:10 10° SSE 19:46:31 45° E 19:51:57 10° NNE
SPOT 3 Rocket 3.9 19:42:31 10° SE 19:47:32 50° ENE 19:52:35 10° N
Cosmos 332 Rocket 3.9 19:42:40 10° NNW 19:47:35 71° ENE 19:52:28 10° SSE
Cosmos 1933 3.6 19:48:47 10° N 19:52:44 51° ENE 19:56:39 10° SSE
Cosmos 1271 Rocket 3.3 19:50:08 10° N 19:53:59 44° ENE 19:57:43 11° SSE
Gbstr 26 Del rocket 2.6 19:50:55 10° WNW 19:54:39 86° SSW 19:58:12 12° ESE
Cosmos 1538 Rocket 4.2 19:50:24 10° SSW 19:55:37 80° WNW 20:00:50 10° NNE
IRS-1A Rocket 4.4 19:50:26 10° S 19:55:56 75° WSW 20:01:28 10° NNW
OBJECT-B 3.2 19:54:19 10° SSW 19:56:54 22° W 19:59:30 10° NW
SPOT 5 4.2 19:57:34 10° ESE 20:00:40 20° ENE 20:03:55 10° NNE
IGS 5A 3.4 19:56:48 10° SSE 20:00:56 81° ENE 20:05:06 10° N
Cosmos 2098 Rocket 3.0 19:57:47 10° SSW 20:01:00 64° W 20:04:56 10° N
ARIANE 5 R/B 4.0 19:58:58 12° ESE 20:02:16 25° ENE 20:05:55 10° N
Meteor 2-19 Rocket 4.4 19:56:21 10° S 20:02:21 70° E 20:08:23 10° NNE
Ariane Rocket 3.4 20:01:35 10° S 20:06:37 63° WSW 20:11:39 10° NNW
Landsat 7 3.8 20:03:20 10° SSE 20:08:06 84° ENE 20:12:53 10° NNW
Cosmos 1782 3.3 20:04:48 10° N 20:08:41 45° ENE 20:11:43 15° SSE
Cosmos 2082 Rocket 3.8 20:07:16 10° WSW 20:12:32 39° NW 20:17:51 10° NNE
Cosmos 304 Rocket 3.9 20:08:19 10° NNW 20:13:07 73° WSW 20:17:46 11° SSE
Cosmos 220 Rocket 4.5 20:11:19 10° N 20:15:32 46° ENE 20:18:36 17° SE
ATLAS 3B R/B 3.7 20:13:02 10° NW 20:19:45 45° WSW 20:26:40 10° S
Cosmos 2360 Rocket 2.8 20:14:28 10° NNW 20:19:51 43° NE 20:23:55 17° ESE
ATLAS 2AS CENTAUR R/B 4.5 20:14:21 10° WSW 20:21:41 40° NW 20:28:48 10° NNE
MetOp-B 4.1 20:18:48 11° SSE 20:23:55 88° ENE 20:29:19 10° NNW
Cosmos 1092 Rocket 4.0 20:19:51 10° S 20:26:07 89° E 20:32:30 10° N
ISS -1.5 20:28:11 10° W 20:30:27 17° SW 20:32:13 12° S
Cosmos 2151 3.8 20:26:56 10° SSW 20:31:04 52° WNW 20:35:15 10° N
NOSS 2-1 (C) 3.0 20:27:58 10° SSW 20:31:11 46° SE 20:34:23 10° NE
ERS-2 3.5 20:31:01 10° N 20:34:27 39° WNW 20:37:50 10° SW
Cosmos 2026 Rocket 4.0 20:28:48 10° S 20:35:08 85° E 20:41:25 10° N
Cosmos 2084 3.2 20:32:40 10° SSW 20:36:42 72° SE 20:40:52 10° NE
COSMOS 2455 3.8 20:34:51 20° SE 20:37:12 25° ESE 20:41:59 10° NE
Cosmos 1812 3.1 20:35:00 10° N 20:38:46 48° ENE 20:40:31 27° SE
NOSS 2-1 (D) 2.8 20:35:39 10° SSW 20:38:56 57° SE 20:42:12 10° NE
GP-B 3.0 20:36:04 10° N 20:40:32 83° E 20:44:01 16° S
Cosmos 1980 Rocket 4.4 20:36:51 10° NW 20:40:42 19° W 20:44:34 10° SW
Cosmos 2333 Rocket 3.3 20:35:46 10° NNW 20:40:52 33° NE 20:44:24 18° ESE
Cosmos 923 Rocket 4.3 20:36:26 10° SSW 20:41:46 73° WNW 20:47:08 10° NNE
BREEZE-M DEB (TANK) 4.2 20:39:12 10° WNW 20:42:49 55° SSW 20:49:45 19° SE
SPOT 1/Viking Rocket 3.7 20:38:26 14° S 20:42:54 73° WSW 20:48:09 10° NNW
ERS-1 Rocket 3.2 20:40:25 23° SE 20:43:27 54° ENE 20:48:21 10° N
USA 245 3.6 20:42:07 18° S 20:45:40 80° WSW 20:49:35 10° NNW
SL-27 R/B 2.7 20:44:42 28° SSE 20:46:13 48° ESE 20:49:42 10° NNE
Okean 3 Rocket 3.5 20:48:05 15° S 20:51:49 86° E 20:56:22 10° N
USA 276 3.7 20:50:08 10° W 20:52:41 23° SW 20:53:10 22° SSW
Cosmos 1408 Rocket 3.9 20:50:55 29° SSE 20:52:43 46° E 20:56:53 10° NNE
Cosmos 2237 Rocket 4.4 20:49:58 10° N 20:53:01 14° NE 20:56:04 10° ENE
Cosmos 2056 Rocket 3.5 20:47:53 10° NNW 20:53:16 82° ENE 20:56:16 26° SSE
Meteor 2-14 Rocket 4.4 20:48:52 16° S 20:53:53 68° E 21:00:00 10° NNE
Cosmos 2322 Rocket 2.4 20:48:40 10° NNW 20:54:16 67° WSW 20:57:55 22° S
CARTOSAT-1 3.7 20:59:31 25° S 21:01:59 70° WSW 21:06:19 10° NNW
Meteor 1-10 Rocket 4.2 20:58:58 10° N 21:04:30 65° ENE 21:07:16 30° SSE
Spot 2 Rocket 3.7 21:03:04 22° S 21:06:21 68° WSW 21:11:29 10° NNW
Cosmos 2219 Rocket 2.8 21:06:27 10° NNW 21:11:49 45° ENE 21:14:26 27° ESE
Resurs 01 Rocket 3.9 21:10:14 10° SW 21:13:29 20° W 21:16:46 10° NW
Cosmos 1371 Rocket 4.4 21:09:45 10° NNW 21:15:03 61° WSW 21:17:55 27° S
BREEZE M DEB (TANK) 4.0 21:11:20 10° SW 21:15:17 64° SSE 21:40:13 10° ENE
Cosmos 1680 Rocket 4.4 21:10:43 10° SW 21:15:50 50° WNW 21:20:57 10° NNE
Cosmos 1515 Rocket 3.5 21:14:39 10° N 21:19:06 86° E 21:20:37 41° SSE
Cosmos 1151 Rocket 4.1 21:15:02 10° NNW 21:19:07 40° W 21:21:48 19° SSW
Terra 1.7 21:19:00 37° SSE 21:20:53 84° ENE 21:25:40 10° NNW
Cosmos 1553 Rocket 4.2 21:16:28 10° NNW 21:22:30 67° W 21:26:23 23° S
Cosmos 2266 Rocket 4.0 21:19:57 30° SSE 21:23:00 63° E 21:29:11 10° NNE
Cosmos 2285 Rocket 4.4 21:17:17 10° NNW 21:23:26 50° ENE 21:26:17 30° ESE
SL-16 R/B 3.6 21:19:47 10° NW 21:24:40 30° WSW 21:28:20 16° SSW
Cosmos 2315 Rocket 4.3 21:22:10 10° N 21:28:23 53° ENE 21:30:56 34° SE
ATLAS 5 CENTAUR R/B 3.0 21:24:30 10° NNW 21:29:42 45° NE 21:33:05 24° ESE
Cosmos 2333 4.1 21:25:30 10° NNW 21:31:08 84° ENE 21:33:17 40° SSE
Cosmos 2228 Rocket 3.4 21:30:13 10° N 21:34:32 51° ENE 21:35:16 45° ESE
NOSS 2-1 (E) 4.3 21:34:07 10° WSW 21:37:13 38° NW 21:40:29 10° NNE
SPOT 5 3.4 21:36:48 30° SSW 21:38:27 44° W 21:42:42 10° NNW
ARIANE 5 R/B 3.8 21:36:32 24° SSW 21:38:34 37° W 21:42:41 10° NNW
COSMOS 2428 3.0 21:33:49 10° NNW 21:39:28 59° ENE 21:41:31 38° ESE
Cosmos 1862 4.5 21:39:48 22° SW 21:41:55 40° WNW 21:45:41 10° N
Cosmos 883 Rocket 4.4 21:37:00 10° N 21:43:17 79° E 21:45:47 39° SSE
NOSS 3-1 (C) 4.1 21:37:37 10° NW 21:45:09 81° SW 21:49:24 34° SSE
Cosmos 292 Rocket 4.2 21:41:11 10° NNW 21:45:50 54° WSW 21:47:10 40° SSW
IRIDIUM 106 4.4 21:42:00 10° N 21:47:13 66° E 21:48:29 48° SE
Cosmos 1048 Rocket 4.0 21:48:39 51° SE 21:49:28 57° ESE 21:54:30 10° NNE
S3M 4.4 21:48:21 10° NNW 21:54:37 58° W 21:57:51 29° SSW
Cosmos 1655 Rocket 4.3 21:54:13 25° SSW 21:58:06 66° W 22:04:30 10° N
COSMOS 2487 2.8 22:00:10 59° N 22:00:10 59° N 22:03:05 10° NNE
ALOS 2 4.1 21:59:22 24° ENE 21:59:57 25° ENE 22:03:31 10° N
Cosmos 972 Rocket 3.9 21:59:17 43° SSW 22:01:04 88° WNW 22:06:04 10° NNE
USA 229 DEB 3.9 21:53:44 10° NW 22:01:06 85° NE 22:04:27 38° SE
USA 229 3.9 21:53:50 10° NW 22:01:12 84° NE 22:04:33 38° SE
Cosmos 1805 Rocket 3.4 22:02:11 72° SSE 22:02:32 79° E 22:06:59 10° NNE
Cosmos 2360 Rocket 3.4 21:58:45 10° NW 22:03:41 32° WSW 22:05:41 25° SW
Cosmos 2084 Rocket 4.3 22:04:32 10° NNW 22:08:32 41° NE 22:09:17 38° ENE
USA 267 3.3 22:06:29 10° ENE 22:12:53 54° SE 22:14:47 42° S
Cosmos 1500 Rocket 4.4 22:11:54 35° WSW 22:13:12 46° WNW 22:17:29 10° N
Cosmos 1980 4.3 22:10:22 10° NNW 22:15:49 46° ENE 22:17:31 36° E
NOSS 0 Rocket 4.0 22:10:48 10° NNW 22:17:02 68° ENE 22:18:54 45° SE
NOSS 3-1 (A) 4.1 22:14:04 10° NW 22:21:38 79° SW 22:25:00 42° SSE
COSMOS 2455 3.2 22:17:53 16° SW 22:22:40 63° NW 22:28:40 10° NNE
Meteor 1-27 Rocket 4.4 22:18:34 10° NNW 22:23:58 46° W 22:25:47 35° SW
Lacrosse 5 2.9 22:25:50 31° E 22:25:50 31° E 22:28:50 10° ENE
Meteor 1-20 Rocket 4.1 22:23:03 55° S 22:24:23 89° W 22:30:08 10° N
Nadezhda 2 Rocket 4.5 22:23:24 51° SSE 22:25:07 77° E 22:31:33 10° N
Cosmos 2333 Rocket 2.8 22:19:56 10° NW 22:25:16 44° WSW 22:26:23 39° SW
Cosmos 1452 Rocket 4.0 22:20:22 10° NNW 22:25:24 48° WSW 22:26:16 44° SW
COBE Rocket 3.6 22:26:51 76° SSW 22:27:09 83° WSW 22:31:54 10° NNW
Cosmos 972 4.5 22:28:19 61° S 22:29:19 85° ESE 22:34:29 10° NNE
BREEZE-M R/B 3.3 22:27:08 10° WSW 22:31:56 42° ENE 22:35:08 10° ENE
Cosmos 2297 Rocket 2.9 22:32:07 38° E 22:32:07 38° E 22:37:04 10° NE
Cosmos 2322 4.4 22:27:01 10° NW 22:32:22 41° WSW 22:33:25 38° SW
Cosmos 1500 4.1 22:34:30 43° NE 22:34:30 43° NE 22:37:20 10° NNE
Sich 1 3.2 22:34:10 61° W 22:34:21 62° W 22:38:40 10° N
Cosmos 1244 Rocket 4.4 22:34:47 55° S 22:36:16 85° E 22:42:31 10° N
Cosmos 2237 Rocket 2.4 22:32:38 10° NNW 22:38:17 63° ENE 22:39:29 51° ESE
Cosmos 1470 Rocket 4.4 22:43:08 39° ENE 22:43:08 39° ENE 22:46:31 10° NNE
Cosmos 1633 Rocket 3.1 22:44:04 70° NE 22:44:04 70° NE 22:48:01 10° NNE
Cosmos 2227 Rocket 3.0 22:44:30 36° E 22:44:30 36° E 22:49:14 10° NE
BREEZE-M DEB (TANK) 4.2 22:40:48 10° WNW 22:42:20 20° W 22:42:20 20° W
USA 234 3.5 22:42:59 25° ESE 22:47:01 66° NNE 22:53:31 10° NW
Cosmos 1110 Rocket 4.1 22:42:31 10° NNW 22:47:46 59° WSW 22:48:10 57° SW
APEX 4.3 22:48:05 53° SW 22:49:36 85° WNW 22:56:19 10° NNE
Cosmos 1331 Rocket 4.0 22:45:04 10° NNW 22:50:15 62° WSW 22:50:32 61° SW
Cosmos 1666 Rocket 3.7 22:50:45 72° WNW 22:50:45 72° WNW 22:55:05 10° N
Cosmos 1340 Rocket 4.4 22:54:24 27° ENE 22:54:24 27° ENE 22:56:44 10° NNE
Cosmos 2219 Rocket 3.2 22:50:44 10° NW 22:55:35 31° WSW 22:56:08 30° WSW
NOSS 2-2 (E) 4.4 22:53:32 10° NW 22:58:58 86° NE 23:00:50 52° SE
Terra 4.2 22:57:53 11° WSW 22:59:16 12° W 23:01:02 10° WNW
Spot 4 4.3 23:03:05 49° W 23:03:08 49° W 23:07:50 10° NNW
SL-16 R/B 3.1 23:02:25 10° NNW 23:07:45 41° NE 23:09:38 31° E
Meteor 1-18 Rocket 4.4 23:04:16 10° NNW 23:10:00 61° W 23:10:44 56° SW
ATLAS 5 CENTAUR R/B 2.9 23:09:04 10° NW 23:14:27 43° WSW 23:14:35 43° WSW
Cosmos 1862 Rocket 4.1 23:10:21 10° NNW 23:14:06 52° WNW 23:14:06 52° WNW
COSMOS 2428 4.2 23:18:54 10° NW 23:23:17 23° WSW 23:23:31 23° WSW
NOSS 2-2 (C) 4.3 23:18:33 10° NW 23:23:57 81° SW 23:25:11 61° SSE
Meteor 2-4 Rocket 3.8 23:18:24 10° NNW 23:24:18 68° W 23:24:59 62° SW
Cosmos 1666 3.7 23:26:25 46° NNW 23:26:25 46° NNW 23:29:18 10° N
Meteor 1-11 Rocket 4.0 23:25:58 49° ESE 23:26:14 50° E 23:31:34 10° NNE
Cosmos 1703 Rocket 3.8 23:25:47 10° N 23:29:38 64° NNE 23:29:38 64° NNE
Cosmos 1709 Rocket 4.0 23:30:39 59° SE 23:31:43 70° E 23:38:04 10° NNE
PSLV R/B 4.2 23:29:48 10° NNE 23:34:07 53° E 23:34:07 53° E
ALOS 2 3.7 23:36:46 34° WNW 23:36:46 34° WNW 23:40:12 10° NNW
Cosmos 1992 Rocket 3.9 23:31:07 10° NNW 23:36:21 75° ENE 23:36:41 71° ESE
Meteor 1-5 Rocket 4.3 23:35:45 61° SW 23:36:35 70° WNW 23:42:30 10° N
Cosmos 909 Rocket 4.1 23:36:15 58° S 23:37:39 77° ESE 23:45:23 10° NE
Cosmos 1745 Rocket 4.2 23:39:17 51° SW 23:40:35 63° WNW 23:46:52 10° N
Cosmos 2219 3.2 23:42:23 63° WSW 23:43:15 76° WNW 23:49:03 10° NNE
CZ-2D R/B 4.3 23:41:34 10° ENE 23:44:23 14° E 23:45:32 13° ESE
Cosmos 1066 Rocket 4.2 23:42:00 10° N 23:47:54 80° ENE 23:48:43 67° SE
Meteor 1-13 Rocket 4.1 23:46:08 10° NNW 23:51:55 82° W 23:52:26 73° SSW
Timation 1 Rocket 4.2 23:51:21 67° SSW 23:52:13 88° WNW 23:58:16 10° NNE
